Regional Weather Roundup
Issued by NWS

Home | Current Version | Previous Version | Graphics & Text | Print | Product List | Glossary Off
Versions: 1 2 3 4 5 6 7 8 9 10 11 12 13 14 15 16 17 18 19 20 21 22 23 24 25 26 27 28 29 30 31 32 33 34 35 36 37 38 39 40 41 42 43 44 45 46 47 48 49 50

000
ASUS43 KMKX 241200
RWRWI

WISCONSIN REGIONAL WEATHER ROUNDUP
NATIONAL WEATHER SERVICE MILWAUKEE/SULLIVAN WI
700 AM CDT SAT JUN 24 2017

NOTE: "FAIR" INDICATES FEW OR NO CLOUDS BELOW 12,000 FEET WITH NO
SIGNIFICANT WEATHER AND/OR OBSTRUCTIONS TO VISIBILITY.

WIZ001-002-006>008-014>016-023>028-241300-
NORTHWEST WISCONSIN

CITY           SKY/WX    TMP DP  RH WIND       PRES   REMARKS
SUPERIOR ARPT  NOT AVBL
ASHLAND        CLOUDY    54  51  90 SW6       29.88R
6HR MIN TEMP:  53; 6HR MAX TEMP:  58; 6HR PCP: TRACE;

HAYWARD        CLOUDY    53  47  79 VRB5      29.91R
6HR MIN TEMP:  52; 6HR MAX TEMP:  56;

SIREN          SUNNY     50  46  86 CALM      29.94S
CUMBERLAND     MOSUNNY   52  45  76 W9        29.94R
RICE LAKE      MOSUNNY   52  47  83 W6        29.94S
CHETEK         MOSUNNY   54  48  82 NW8       29.93S
LADYSMITH      CLOUDY    54  49  84 W10       29.93R
EAU CLAIRE     NOT AVBL
MENOMONIE      SUNNY     55  50  83 W9        29.96R
6HR MIN TEMP:  52; 6HR MAX TEMP:  59;

NEW RICHMOND   PTSUNNY   53  46  79 W7        29.97R
OSCEOLA        CLOUDY    54  45  71 W7        30.00R
$$

WIZ003>005-009-010-017-018-241300-
NORTH CENTRAL WISCONSIN

CITY           SKY/WX    TMP DP  RH WIND       PRES   REMARKS
MANITOWISH WTR CLOUDY    53  53 100 W10       29.86S
ARBOR VITAE    CLOUDY    57  52  84 NW8       29.86R
WOODRUFF       CLOUDY    57  52  84 NW8       29.86R
RHINELANDER    CLOUDY    55  51  86 W9        29.87S
6HR MIN TEMP:  53; 6HR MAX TEMP:  55;

EAGLE RIVER    DRIZZLE   55  49  81 W6        29.85S
LAND O LAKES   LGT RAIN  54  52  91 W6        29.87R
6HR MIN TEMP:  54; 6HR MAX TEMP:  56; 6HR PCP:  0.01;

PHILLIPS       CLOUDY    53  50  89 CALM      29.88S
TOMAHAWK       NOT AVBL
MEDFORD        CLOUDY    52  49  90 W8        29.90R
MERRILL        CLOUDY    55  52  89 NW10      29.88S
6HR MIN TEMP:  55; 6HR MAX TEMP:  56;

$$

WIZ029-030-035-036-043>047-241300-
CENTRAL WISCONSIN

CITY           SKY/WX    TMP DP  RH WIND       PRES   REMARKS
WAUSAU         MOSUNNY   57  51  80 W12       29.88R
6HR MIN TEMP:  55; 6HR MAX TEMP:  58;

MOSINEE        MOSUNNY   54  52  94 W10       29.91R
MARSHFIELD     MOSUNNY   53  49  86 W9        29.91R
6HR MIN TEMP:  52; 6HR MAX TEMP:  58; 6HR PCP: TRACE;

STEVENS POINT  CLOUDY    55  50  84 W5        29.90S
WAUPACA        MOSUNNY   61  55  81 W8        29.89R
6HR MIN TEMP:  59; 6HR MAX TEMP:  61; 6HR PCP:  0.01;

WAUTOMA        CLOUDY    58  51  78 NW9       29.91R
6HR MIN TEMP:  58; 6HR MAX TEMP:  61;

WISC RAPIDS    MOSUNNY   57  51  80 NW8       29.93R
6HR MIN TEMP:  55; 6HR MAX TEMP:  61;

CAMP DOUGLAS   NOT AVBL
$$

WIZ011>013-019>022-031-037>040-048>050-241300-
NORTHEAST WISCONSIN

CITY           SKY/WX    TMP DP  RH WIND       PRES   REMARKS
ANTIGO         CLOUDY    54  52  95 W10       29.87S
SHAWANO        CLOUDY    60  54  81 W7        29.85S
OCONTO         CLOUDY    57  53  86 W8        29.83R
STURGEON BAY     N/A     60  54  80 NW10        N/A
6HR MIN TEMP:  59; 6HR MAX TEMP:  61;

GREEN BAY      CLOUDY    60  56  86 NW9       29.85R
6HR MIN TEMP:  58; 6HR MAX TEMP:  60; 6HR PCP: TRACE;

MANITOWOC      NOT AVBL
APPLETON       PTSUNNY   59  52  77 W12       29.85S
CLINTONVILLE   CLOUDY    59  52  77 W10       29.86S
OSHKOSH        PTSUNNY   60  54  80 W10G20    29.86S
6HR MIN TEMP:  59; 6HR MAX TEMP:  61;

$$

WIZ032>034-041-042-053>061-241300-
SOUTHWEST WISCONSIN

CITY           SKY/WX    TMP DP  RH WIND       PRES   REMARKS
LA CROSSE      MOSUNNY   63  51  65 NW9       29.95R
6HR MIN TEMP:  59; 6HR MAX TEMP:  68;

SPARTA         SUNNY     54  51  90 W3        29.95R
VIROQUA        MOSUNNY   55  54  94 W6        29.96R
BOSCOBEL       SUNNY     61  53  75 W5        29.97R
6HR MIN TEMP:  58; 6HR MAX TEMP:  65;

PRAIRIE DU CHI MOSUNNY   57  48  72 NW6G16    29.98R
PLATTEVILLE    SUNNY     57  55  92 W9        29.97R
$$

WIZ056-057-062-063-064-067-068-241300-
SOUTH CENTRAL WISCONSIN

CITY           SKY/WX    TMP DP  RH WIND       PRES   REMARKS
REEDSBURG      MOSUNNY   56  53  92 NW3       29.93R
BARABOO/DELLS  MOSUNNY   56  51  81 W10       29.93R
LONE ROCK      NOT AVBL
MINERAL POINT  SUNNY     57  55  94 W7        29.95R
MADISON        MOSUNNY   59  53  80 NW7       29.92R
6HR MIN TEMP:  57; 6HR MAX TEMP:  61;

MIDDLETON      SUNNY     59  54  84 W8        29.93R
WATERTOWN      SUNNY     59  55  86 NW10      29.90R
MONROE         SUNNY     57  52  82 W9        29.94S
JANESVILLE     MOSUNNY   61  55  82 NW12      29.92R
$$

WIZ051-052-058>065-066-070>072-241300-
SOUTHEAST WISCONSIN

CITY           SKY/WX    TMP DP  RH WIND       PRES   REMARKS
MILWAUKEE      MOSUNNY   63  54  72 NW14      29.88S
6HR MIN TEMP:  62; 6HR MAX TEMP:  66;

WAUKESHA       SUNNY     59  52  77 W12       29.91R
MILWAUKEE/TIMM SUNNY     59  50  72 W7        29.89R
RACINE         SUNNY     62  53  72 W10G18    29.89S
6HR MIN TEMP:  60; 6HR MAX TEMP:  63;

KENOSHA        SUNNY     62  55  77 W10       29.89S
6HR MIN TEMP:  58; 6HR MAX TEMP:  62;

FOND DU LAC    PTSUNNY   60  53  77 W7        29.89R
6HR MIN TEMP:  59; 6HR MAX TEMP:  62;

SHEBOYGAN      CLOUDY    61  56  83 NW10      29.86R
6HR MIN TEMP:  59; 6HR MAX TEMP:  62;

WEST BEND      MOSUNNY   59  54  82 W10       29.88R
JUNEAU         SUNNY     57  53  85 W5        29.91R
$$

LSZ147-162-241300-
LAKE SUPERIOR

STATION/POSITION TIME  TEMP    WIND        PRES    WAVE
                       AIR SEA DIR/SP/G            HT/PER
                 (UTC) (F)     (DEG/KT/KT) (MB)    (FT/S)
W MID LAKE BUOY  1050   44 39  260/  8/ 10 1009.8R   1/ 3
DEVILS ISLAND    1100   53     250/ 14/ 16 1010.7R
SAXON HARBOR     1140   56     210/  6/  9 1010.8S
$$

LMZ867-665-643>646-241300-
LAKE MICHIGAN

STATION/POSITION TIME  TEMP    WIND        PRES    WAVE
                       AIR SEA DIR/SP/G            HT/PER
                 (UTC) (F)     (DEG/KT/KT) (MB)    (FT/S)
CHAMBERS ISLAND  1140   58     300/  6/ 13 1009.1S
S GREEN BAY BUOY 1130   60     280/ 16/ 17 1009.9R
N MID LAKE BUOY  1050   58 56  290/  8/ 10 1009.4R   1/ 3
NORTHPORT PIER   1140   60     310/ 10/ 14 1009.5R
KEWAUNEE LAKESHO 1130   59     300/  8/ 11 1009.9R
SHEBOYGAN LAKESH 1100   61     290/ 15/ 21 1010.1R
PORT WASHINGTON  1130   63     300/  8/ 12 1011.9S
ATWATER BUOY     1009   60 58  270/ 10/ 14 1011.3R
MILWAUKEE LAKESH 1130   61     280/ 11/ 15   N/A
S MID LAKE BUOY  1050   62 61  310/ 12/ 14 1011.1R   2/ 4
KENOSHA   LAKESH 1100   62     290/  7/ 12 1011.9
$$

TC  - TEMPERATURE IN CELSIUS
VSB - VISIBILITY IN STATUTE MILES
WCI - WIND CHILL INDEX
HX  - HEAT INDEX





USA.gov is the U.S. government's official web portal to all federal, state and local government web resources and services.